DELTA 1 DEB, 10338

Orbit data source: Space-Track

DELTA 1 DEB, 10338 is space debris in LEO originally from a launch on Thu, 14 Jul 1977 UTC launched from the Air Force Eastern Test Range (AFETR). Debris objects in space refer to the collection of defunct objects orbiting the Earth. Examples of debris include non-operational satellites, rocket bodies, and fragments generated from explosions, collisions, or faulty payload assembly.

Loading next visibility...
Identifier
10338, 1977-065DM
Orbit
LEO
Country
Flag of USUS
Related business
Manufacturer
Unknown
Mission
Spacecraft
Bus & Motor
Unknown
Mass
Unknown
Launch date (UTC)
1977-07-14 (48 years ago)
Launch vehicle
Unknown
Launch site
Air Force Eastern Test Range (AFETR)
Object type
Payload
Rocket body
Debris
Shape & HBR
Unknown shape, 0.1 m
Radar Cross Section
Small (<0.1 m²)

Expand to show TLE details & history
Last TLE update: 20 hours ago

TLE from 20 hours ago
0 DELTA 1 DEB
1 10338U 77065DM  25300.90599540  .00002206  00000-0  39872-3 0  9993
2 10338  29.0633 150.6162 0622798 274.8653  78.1126 13.82810448381567
Epoch: 2025-10-27T21:44Z
TLE epoch observation values (Epoch: 2025-10-27T21:44:38.002Z)
Latitude
-0.00003°
Longitude
147.95668°
Altitude
885.996 km
Speed
7.445 km/s
True Right ascension
10h 02m 27s
True Declination
0° 00' 00"
Sunlit
Object was in daylight at epoch
Visualization orbit readout
Latitude
Unknown
Longitude
Unknown
Altitude
Unknown
Speed
Unknown
Apparent Right ascension
Unknown
Apparent Declination
Unknown
Sunlit
N/A
Visualization observer readout
Local Sidereal Time
12:47:27
Azimuth
Unknown
Elevation
Unknown
Doppler factor
Unknown
Orbital elements
Apogee altitude
1,414.728 km
Perigee altitude
500.961 km
Semi-major axis
7,335.982 km
Eccentricity
0.06228
Inclination
29.0633°
RAAN
150.6162°
Arg. of periapsis
274.8653°
True anomaly
85.19194°
Mean anomaly
78.1126°
Eccentric anomaly
81.64308°
Mean motion
3.45427 °/min
Orbital period
104.22 mins
BSTAR
0.00039872
Loading maneuver chart data...
Computing Atmospheric mass density...

Documentation

Showing up to 5 results
|